| time (UTC) | temp F | wind direction | speed MPH | gust MPH | rain 1hr in | rain 24hr in | rain mn in | humidity % | barometer mb |
| 20260905002044 | 69 | 344 | 3.0 | 6.0 | 0.00 | 0.00 | 0.00 | 83 | 1019.2 |
| 20260905001602 | 69 | 5 | 3.0 | 6.0 | 0.00 | 0.00 | 0.00 | 83 | 1019.1 |
| 20260905001037 | 69 | 19 | 4.0 | 8.0 | 0.00 | 0.00 | 0.00 | 83 | 1019.0 |
| 20260905000528 | 69 | 355 | 3.0 | 8.0 | 0.00 | 0.00 | 0.00 | 82 | 1019.1 |
| 20260905000044 | 69 | 13 | 2.0 | 10.0 | 0.00 | 0.00 | 0.00 | 82 | 1019.2 |
| 20260904235548 | 69 | 355 | 3.0 | 10.0 | 0.00 | 0.00 | 0.00 | 82 | 1019.2 |
| 20260904235032 | 69 | 30 | 3.0 | 9.0 | 0.00 | 0.00 | 0.00 | 82 | 1019.0 |
| 20260904234533 | 69 | 5 | 4.0 | 10.0 | 0.00 | 0.00 | 0.00 | 82 | 1019.0 |
| 20260904234042 | 70 | 5 | 4.0 | 10.0 | 0.00 | 0.00 | 0.00 | 81 | 1019.1 |
| 20260904233539 | 70 | 355 | 4.0 | 9.0 | 0.00 | 0.00 | 0.00 | 81 | 1019.0 |
| 20260904233052 | 70 | 349 | 4.0 | 9.0 | 0.00 | 0.00 | 0.00 | 81 | 1019.0 |
| 20260904232548 | 70 | 318 | 3.0 | 6.0 | 0.00 | 0.00 | 0.00 | 81 | 1019.0 |
| 20260904232046 | 70 | 325 | 2.0 | 8.0 | 0.00 | 0.00 | 0.00 | 80 | 1018.9 |
| 20260904231545 | 70 | 334 | 4.0 | 8.0 | 0.00 | 0.00 | 0.00 | 79 | 1018.8 |
| 20260904231043 | 71 | 348 | 1.0 | 8.0 | 0.00 | 0.00 | 0.00 | 79 | 1019.0 |
| 20260904230535 | 71 | 24 | 3.0 | 8.0 | 0.00 | 0.00 | 0.00 | 79 | 1018.9 |
| 20260904230028 | 71 | 360 | 3.0 | 11.0 | 0.00 | 0.00 | 0.00 | 78 | 1019.0 |
| 20260904225544 | 71 | 15 | 5.0 | 11.0 | 0.00 | 0.00 | 0.00 | 78 | 1019.0 |
| 20260904225034 | 71 | 303 | 5.0 | 9.0 | 0.00 | 0.00 | 0.00 | 78 | 1019.0 |
| 20260904224531 | 71 | 355 | 5.0 | 11.0 | 0.00 | 0.00 | 0.00 | 77 | 1018.9 |
| 20260904224045 | 72 | 360 | 5.0 | 11.0 | 0.00 | 0.00 | 0.00 | 77 | 1018.9 |
| 20260904223537 | 72 | 355 | 4.0 | 11.0 | 0.00 | 0.00 | 0.00 | 78 | 1018.8 |
| 20260904223106 | 72 | 355 | 4.0 | 11.0 | 0.00 | 0.00 | 0.00 | 78 | 1018.8 |
| 20260904222600 | 72 | 355 | 5.0 | 8.0 | 0.00 | 0.00 | 0.00 | 78 | 1018.7 |
| 20260904222052 | 72 | 335 | 4.0 | 9.0 | 0.00 | 0.00 | 0.00 | 78 | 1018.6 |
| 20260904221543 | 72 | 323 | 4.0 | 11.0 | 0.00 | 0.00 | 0.00 | 77 | 1018.6 |
| 20260904221042 | 72 | 355 | 5.0 | 11.0 | 0.00 | 0.00 | 0.00 | 77 | 1018.6 |
| 20260904220541 | 73 | 350 | 4.0 | 14.0 | 0.00 | 0.00 | 0.00 | 75 | 1018.7 |
| 20260904220036 | 73 | 355 | 6.0 | 14.0 | 0.00 | 0.00 | 0.00 | 72 | 1018.7 |
| 20260904215532 | 74 | 313 | 5.0 | 9.0 | 0.00 | 0.00 | 0.00 | 70 | 1018.5 |
| 20260904215029 | 74 | 322 | 2.0 | 8.0 | 0.00 | 0.00 | 0.00 | 70 | 1018.4 |
| 20260904214537 | 74 | 342 | 3.0 | 9.0 | 0.00 | 0.00 | 0.00 | 70 | 1018.4 |
| 20260904214031 | 74 | 325 | 3.0 | 9.0 | 0.00 | 0.00 | 0.00 | 69 | 1018.4 |
| 20260904213531 | 74 | 321 | 2.0 | 9.0 | 0.00 | 0.00 | 0.00 | 69 | 1018.4 |
| 20260904213027 | 74 | 342 | 4.0 | 7.0 | 0.00 | 0.00 | 0.00 | 69 | 1018.3 |
| 20260904212529 | 74 | 355 | 2.0 | 8.0 | 0.00 | 0.00 | 0.00 | 69 | 1018.4 |
| 20260904212053 | 74 | 306 | 3.0 | 8.0 | 0.00 | 0.00 | 0.00 | 69 | 1018.4 |
| 20260904211531 | 74 | 338 | 4.0 | 6.0 | 0.00 | 0.00 | 0.00 | 70 | 1018.3 |
| 20260904211057 | 74 | 328 | 3.0 | 8.0 | 0.00 | 0.00 | 0.00 | 70 | 1018.4 |
| 20260904210529 | 74 | 355 | 4.0 | 8.0 | 0.00 | 0.00 | 0.00 | 70 | 1018.4 |
| 20260904210049 | 74 | 336 | 2.0 | 4.0 | 0.00 | 0.00 | 0.00 | 71 | 1018.4 |
| 20260904205542 | 74 | 346 | 2.0 | 5.0 | 0.00 | 0.00 | 0.00 | 71 | 1018.2 |
| 20260904205040 | 74 | 355 | 1.0 | 3.0 | 0.00 | 0.00 | 0.00 | 71 | 1018.2 |
| 20260904204534 | 74 | 296 | 1.0 | 3.0 | 0.00 | 0.00 | 0.00 | 71 | 1018.0 |
| 20260904204029 | 74 | 284 | 1.0 | 3.0 | 0.00 | 0.00 | 0.00 | 71 | 1017.9 |
| 20260904203539 | 74 | 304 | 1.0 | 3.0 | 0.00 | 0.00 | 0.00 | 71 | 1017.9 |
| 20260904203027 | 74 | 306 | 2.0 | 4.0 | 0.00 | 0.00 | 0.00 | 71 | 1017.9 |
| 20260904202547 | 74 | 318 | 1.0 | 4.0 | 0.00 | 0.00 | 0.00 | 70 | 1017.9 |
| 20260904202039 | 75 | 292 | 1.0 | 4.0 | 0.00 | 0.00 | 0.00 | 70 | 1017.9 |
| 20260904201535 | 75 | 324 | 1.0 | 4.0 | 0.00 | 0.00 | 0.00 | 69 | 1018.0 |
| 20260904201038 | 76 | 334 | 2.0 | 4.0 | 0.00 | 0.00 | 0.00 | 69 | 1017.9 |
| 20260904200555 | 76 | 332 | 1.0 | 4.0 | 0.00 | 0.00 | 0.00 | 68 | 1017.9 |
| 20260904200039 | 76 | 336 | 1.0 | 6.0 | 0.00 | 0.00 | 0.00 | 68 | 1017.9 |
| 20260904195532 | 76 | 321 | 3.0 | 6.0 | 0.00 | 0.00 | 0.00 | 68 | 1017.7 |
| 20260904195054 | 76 | 340 | 2.0 | 4.0 | 0.00 | 0.00 | 0.00 | 68 | 1017.7 |
| 20260904194547 | 76 | 355 | 1.0 | 8.0 | 0.00 | 0.00 | 0.00 | 68 | 1017.5 |
| 20260904194035 | 76 | 285 | 2.0 | 9.0 | 0.00 | 0.00 | 0.00 | 68 | 1017.5 |
| 20260904193547 | 76 | 355 | 3.0 | 9.0 | 0.00 | 0.00 | 0.00 | 68 | 1017.5 |
| 20260904193038 | 77 | 323 | 2.0 | 5.0 | 0.00 | 0.00 | 0.00 | 67 | 1017.4 |
| 20260904192548 | 77 | 309 | 2.0 | 6.0 | 0.00 | 0.00 | 0.00 | 67 | 1017.3 |
| 20260904192041 | 77 | 288 | 2.0 | 6.0 | 0.00 | 0.00 | 0.00 | 67 | 1017.1 |
| 20260904191534 | 77 | 306 | 2.0 | 5.0 | 0.00 | 0.00 | 0.00 | 66 | 1017.1 |
| 20260904191027 | 77 | 355 | 2.0 | 6.0 | 0.00 | 0.00 | 0.00 | 66 | 1017.1 |
| 20260904190539 | 77 | 318 | 2.0 | 8.0 | 0.00 | 0.00 | 0.00 | 66 | 1017.0 |
| 20260904190028 | 77 | 306 | 4.0 | 8.0 | 0.00 | 0.00 | 0.00 | 66 | 1016.9 |
| 20260904185534 | 77 | 306 | 1.0 | 4.0 | 0.00 | 0.00 | 0.00 | 66 | 1016.8 |
| 20260904185046 | 77 | 308 | 2.0 | 6.0 | 0.00 | 0.00 | 0.00 | 65 | 1016.8 |
| 20260904184547 | 77 | 290 | 3.0 | 8.0 | 0.00 | 0.00 | 0.00 | 65 | 1016.7 |
| 20260904184058 | 77 | 306 | 3.0 | 8.0 | 0.00 | 0.00 | 0.00 | 65 | 1016.6 |
| 20260904183535 | 78 | 304 | 3.0 | 8.0 | 0.00 | 0.00 | 0.00 | 64 | 1016.5 |
| 20260904183032 | 78 | 296 | 3.0 | 9.0 | 0.00 | 0.00 | 0.00 | 64 | 1016.5 |
| 20260904182536 | 78 | 305 | 4.0 | 9.0 | 0.00 | 0.00 | 0.00 | 64 | 1016.4 |
| 20260904182046 | 78 | 306 | 2.0 | 9.0 | 0.00 | 0.00 | 0.00 | 63 | 1016.4 |
| 20260904181540 | 79 | 292 | 4.0 | 11.0 | 0.00 | 0.00 | 0.00 | 62 | 1016.4 |
| 20260904181035 | 79 | 284 | 5.0 | 11.0 | 0.00 | 0.00 | 0.00 | 62 | 1016.2 |
| 20260904180553 | 79 | 324 | 3.0 | 9.0 | 0.00 | 0.00 | 0.00 | 62 | 1016.2 |
| 20260904180043 | 79 | 321 | 3.0 | 8.0 | 0.00 | 0.00 | 0.00 | 62 | 1016.2 |
| 20260904175533 | 79 | 327 | 3.0 | 12.0 | 0.00 | 0.00 | 0.00 | 61 | 1016.1 |
| 20260904175041 | 80 | 314 | 6.0 | 12.0 | 0.00 | 0.00 | 0.00 | 61 | 1016.1 |
| 20260904174534 | 80 | 269 | 4.0 | 9.0 | 0.00 | 0.00 | 0.00 | 60 | 1016.1 |
| 20260904174054 | 81 | 297 | 5.0 | 12.0 | 0.00 | 0.00 | 0.00 | 60 | 1016.2 |
| 20260904173553 | 81 | 295 | 7.0 | 12.0 | 0.00 | 0.00 | 0.00 | 59 | 1016.1 |
| 20260904173031 | 81 | 333 | 4.0 | 11.0 | 0.00 | 0.00 | 0.00 | 59 | 1016.0 |
| 20260904172545 | 81 | 305 | 5.0 | 10.0 | 0.00 | 0.00 | 0.00 | 58 | 1016.0 |
| 20260904172037 | 82 | 350 | 5.0 | 12.0 | 0.00 | 0.00 | 0.00 | 58 | 1016.0 |
| 20260904171547 | 82 | 314 | 8.0 | 13.0 | 0.00 | 0.00 | 0.00 | 57 | 1015.9 |
| 20260904171045 | 83 | 315 | 5.0 | 16.0 | 0.00 | 0.00 | 0.00 | 56 | 1016.0 |
| 20260904170537 | 83 | 295 | 7.0 | 16.0 | 0.00 | 0.00 | 0.00 | 56 | 1015.9 |
| 20260904170034 | 83 | 289 | 6.0 | 13.0 | 0.00 | 0.00 | 0.00 | 55 | 1015.9 |
| 20260904165545 | 83 | 281 | 7.0 | 13.0 | 0.00 | 0.00 | 0.00 | 56 | 1015.9 |
| 20260904165042 | 83 | 321 | 9.0 | 16.0 | 0.00 | 0.00 | 0.00 | 55 | 1015.9 |
| 20260904164538 | 84 | 306 | 10.0 | 18.0 | 0.00 | 0.00 | 0.00 | 55 | 1015.9 |
| 20260904164029 | 84 | 304 | 11.0 | 18.0 | 0.00 | 0.00 | 0.00 | 54 | 1015.9 |
| 20260904163547 | 85 | 304 | 6.0 | 15.0 | 0.00 | 0.00 | 0.00 | 53 | 1015.8 |
| 20260904163039 | 85 | 311 | 5.0 | 15.0 | 0.00 | 0.00 | 0.00 | 53 | 1015.9 |
| 20260904162529 | 85 | 336 | 9.0 | 17.0 | 0.00 | 0.00 | 0.00 | 53 | 1015.8 |
| 20260904162053 | 85 | 303 | 9.0 | 17.0 | 0.00 | 0.00 | 0.00 | 51 | 1015.8 |
| 20260904161608 | 86 | 294 | 6.0 | 16.0 | 0.00 | 0.00 | 0.00 | 51 | 1015.6 |
| 20260904161039 | 86 | 268 | 9.0 | 16.0 | 0.00 | 0.00 | 0.00 | 49 | 1015.7 |
| 20260904160547 | 86 | 311 | 8.0 | 16.0 | 0.00 | 0.00 | 0.00 | 48 | 1015.6 |
| 20260904160036 | 87 | 284 | 7.0 | 16.0 | 0.00 | 0.00 | 0.00 | 47 | 1015.6 |
| 20260904155546 | 87 | 327 | 5.0 | 17.0 | 0.00 | 0.00 | 0.00 | 47 | 1015.5 |
| 20260904155042 | 87 | 305 | 12.0 | 17.0 | 0.00 | 0.00 | 0.00 | 45 | 1015.5 |
| 20260904154533 | 88 | 291 | 8.0 | 16.0 | 0.00 | 0.00 | 0.00 | 45 | 1015.4 |
| 20260904154027 | 88 | 323 | 6.0 | 15.0 | 0.00 | 0.00 | 0.00 | 46 | 1015.3 |
| 20260904153543 | 88 | 296 | 8.0 | 15.0 | 0.00 | 0.00 | 0.00 | 46 | 1015.3 |
| 20260904153031 | 89 | 299 | 6.0 | 15.0 | 0.00 | 0.00 | 0.00 | 44 | 1015.3 |
| 20260904152540 | 89 | 290 | 9.0 | 15.0 | 0.00 | 0.00 | 0.00 | 41 | 1015.3 |
| 20260904152032 | 90 | 355 | 4.0 | 14.0 | 0.00 | 0.00 | 0.00 | 40 | 1015.3 |
| 20260904151543 | 90 | 318 | 6.0 | 14.0 | 0.00 | 0.00 | 0.00 | 36 | 1015.2 |
| 20260904151035 | 90 | 281 | 6.0 | 13.0 | 0.00 | 0.00 | 0.00 | 34 | 1015.3 |
| 20260904150546 | 90 | 277 | 5.0 | 13.0 | 0.00 | 0.00 | 0.00 | 34 | 1015.2 |
| 20260904150033 | 90 | 275 | 6.0 | 16.0 | 0.00 | 0.00 | 0.00 | 31 | 1015.3 |
| 20260904145548 | 90 | 290 | 10.0 | 16.0 | 0.00 | 0.00 | 0.00 | 30 | 1015.2 |
| 20260904145027 | 90 | 230 | 5.0 | 13.0 | 0.00 | 0.00 | 0.00 | 29 | 1015.2 |
| 20260904144539 | 90 | 329 | 7.0 | 15.0 | 0.00 | 0.00 | 0.00 | 30 | 1015.2 |
| 20260904144033 | 90 | 325 | 8.0 | 15.0 | 0.00 | 0.00 | 0.00 | 30 | 1015.2 |
| 20260904143545 | 91 | 287 | 7.0 | 16.0 | 0.00 | 0.00 | 0.00 | 28 | 1015.2 |
| 20260904143037 | 91 | 312 | 8.0 | 16.0 | 0.00 | 0.00 | 0.00 | 27 | 1015.2 |
| 20260904142552 | 90 | 266 | 10.0 | 17.0 | 0.00 | 0.00 | 0.00 | 29 | 1015.3 |
| 20260904142042 | 91 | 292 | 8.0 | 17.0 | 0.00 | 0.00 | 0.00 | 29 | 1015.2 |
| 20260904141533 | 90 | 252 | 6.0 | 17.0 | 0.00 | 0.00 | 0.00 | 33 | 1015.2 |
| 20260904141033 | 90 | 303 | 9.0 | 17.0 | 0.00 | 0.00 | 0.00 | 33 | 1015.2 |
| 20260904140542 | 91 | 234 | 4.0 | 13.0 | 0.00 | 0.00 | 0.00 | 31 | 1015.3 |
| 20260904140029 | 90 | 273 | 5.0 | 14.0 | 0.00 | 0.00 | 0.00 | 32 | 1015.2 |
| 20260904135539 | 91 | 283 | 7.0 | 14.0 | 0.00 | 0.00 | 0.00 | 34 | 1015.2 |
| 20260904135033 | 90 | 281 | 5.0 | 15.0 | 0.00 | 0.00 | 0.00 | 34 | 1015.3 |
| 20260904134545 | 90 | 276 | 8.0 | 12.0 | 0.00 | 0.00 | 0.00 | 33 | 1015.3 |
| 20260904134041 | 90 | 327 | 7.0 | 13.0 | 0.00 | 0.00 | 0.00 | 33 | 1015.3 |
| 20260904133532 | 90 | 253 | 5.0 | 14.0 | 0.00 | 0.00 | 0.00 | 34 | 1015.4 |
| 20260904133038 | 90 | 228 | 6.0 | 17.0 | 0.00 | 0.00 | 0.00 | 35 | 1015.4 |
| 20260904132529 | 90 | 325 | 10.0 | 17.0 | 0.00 | 0.00 | 0.00 | 34 | 1015.4 |
| 20260904132036 | 90 | 297 | 8.0 | 16.0 | 0.00 | 0.00 | 0.00 | 34 | 1015.5 |
| 20260904131531 | 90 | 270 | 5.0 | 17.0 | 0.00 | 0.00 | 0.00 | 34 | 1015.3 |
| 20260904131039 | 90 | 266 | 7.0 | 17.0 | 0.00 | 0.00 | 0.00 | 34 | 1015.4 |
| 20260904130532 | 90 | 242 | 5.0 | 14.0 | 0.00 | 0.00 | 0.00 | 33 | 1015.6 |
| 20260904130035 | 90 | 290 | 5.0 | 13.0 | 0.00 | 0.00 | 0.00 | 34 | 1015.6 |
| 20260904125529 | 89 | 331 | 4.0 | 19.0 | 0.00 | 0.00 | 0.00 | 35 | 1015.6 |
| 20260904125041 | 90 | 264 | 12.0 | 19.0 | 0.00 | 0.00 | 0.00 | 33 | 1015.6 |
| 20260904124539 | 90 | 296 | 6.0 | 13.0 | 0.00 | 0.00 | 0.00 | 35 | 1015.7 |
| 20260904124103 | 90 | 320 | 8.0 | 15.0 | 0.00 | 0.00 | 0.00 | 36 | 1015.7 |
| 20260904123535 | 90 | 282 | 7.0 | 15.0 | 0.00 | 0.00 | 0.00 | 35 | 1015.7 |
| 20260904123031 | 90 | 276 | 5.0 | 14.0 | 0.00 | 0.00 | 0.00 | 35 | 1015.7 |
| 20260904122543 | 89 | 221 | 8.0 | 15.0 | 0.00 | 0.00 | 0.00 | 33 | 1015.6 |
| 20260904122037 | 88 | 285 | 4.0 | 16.0 | 0.00 | 0.00 | 0.00 | 34 | 1015.7 |
| 20260904121528 | 88 | 281 | 7.0 | 16.0 | 0.00 | 0.00 | 0.00 | 35 | 1015.6 |
| 20260904121059 | 88 | 274 | 9.0 | 14.0 | 0.00 | 0.00 | 0.00 | 34 | 1015.5 |
| 20260904120531 | 87 | 264 | 6.0 | 13.0 | 0.00 | 0.00 | 0.00 | 37 | 1015.7 |
| 20260904120055 | 87 | 309 | 7.0 | 13.0 | 0.00 | 0.00 | 0.00 | 34 | 1015.8 |
| 20260904115546 | 87 | 246 | 8.0 | 14.0 | 0.00 | 0.00 | 0.00 | 36 | 1015.9 |
| 20260904115039 | 87 | 275 | 8.0 | 16.0 | 0.00 | 0.00 | 0.00 | 35 | 1015.9 |
| 20260904114535 | 87 | 323 | 5.0 | 18.0 | 0.00 | 0.00 | 0.00 | 40 | 1016.0 |
| 20260904114043 | 87 | 251 | 12.0 | 18.0 | 0.00 | 0.00 | 0.00 | 37 | 1016.0 |
| 20260904113536 | 87 | 287 | 7.0 | 16.0 | 0.00 | 0.00 | 0.00 | 35 | 1016.0 |
| 20260904113043 | 88 | 275 | 10.0 | 16.0 | 0.00 | 0.00 | 0.00 | 37 | 1016.1 |
| 20260904112532 | 87 | 314 | 6.0 | 13.0 | 0.00 | 0.00 | 0.00 | 40 | 1016.2 |
| 20260904112058 | 87 | 284 | 4.0 | 13.0 | 0.00 | 0.00 | 0.00 | 42 | 1016.3 |
| 20260904111547 | 87 | 229 | 7.0 | 13.0 | 0.00 | 0.00 | 0.00 | 41 | 1016.2 |
| 20260904111033 | 86 | 234 | 4.0 | 17.0 | 0.00 | 0.00 | 0.00 | 45 | 1016.4 |
| 20260904110548 | 86 | 294 | 7.0 | 17.0 | 0.00 | 0.00 | 0.00 | 43 | 1016.4 |
| 20260904110035 | 86 | 291 | 6.0 | 14.0 | 0.00 | 0.00 | 0.00 | 45 | 1016.4 |
| 20260904105541 | 86 | 244 | 6.0 | 17.0 | 0.00 | 0.00 | 0.00 | 46 | 1016.4 |
| 20260904105036 | 85 | 290 | 7.0 | 19.0 | 0.00 | 0.00 | 0.00 | 46 | 1016.4 |
| 20260904104529 | 85 | 290 | 8.0 | 19.0 | 0.00 | 0.00 | 0.00 | 46 | 1016.5 |
| 20260904104034 | 85 | 276 | 6.0 | 16.0 | 0.00 | 0.00 | 0.00 | 48 | 1016.4 |
| 20260904103546 | 85 | 298 | 6.0 | 16.0 | 0.00 | 0.00 | 0.00 | 47 | 1016.4 |
| 20260904103033 | 85 | 288 | 6.0 | 15.0 | 0.00 | 0.00 | 0.00 | 50 | 1016.5 |
| 20260904102545 | 84 | 224 | 7.0 | 15.0 | 0.00 | 0.00 | 0.00 | 50 | 1016.6 |
| 20260904102038 | 84 | 257 | 6.0 | 18.0 | 0.00 | 0.00 | 0.00 | 50 | 1016.6 |
| 20260904101546 | 84 | 291 | 7.0 | 18.0 | 0.00 | 0.00 | 0.00 | 54 | 1016.7 |
| 20260904101037 | 83 | 306 | 7.0 | 12.0 | 0.00 | 0.00 | 0.00 | 53 | 1016.7 |
| 20260904100609 | 83 | 296 | 5.0 | 15.0 | 0.00 | 0.00 | 0.00 | 54 | 1016.7 |
| 20260904100035 | 83 | 320 | 7.0 | 15.0 | 0.00 | 0.00 | 0.00 | 55 | 1016.7 |
| 20260904095546 | 83 | 236 | 5.0 | 13.0 | 0.00 | 0.00 | 0.00 | 56 | 1016.8 |
| 20260904095037 | 82 | 199 | 2.0 | 10.0 | 0.00 | 0.00 | 0.00 | 58 | 1016.7 |
| 20260904094547 | 82 | 258 | 3.0 | 12.0 | 0.00 | 0.00 | 0.00 | 58 | 1016.8 |
| 20260904094039 | 81 | 252 | 4.0 | 12.0 | 0.00 | 0.00 | 0.00 | 58 | 1016.9 |
| 20260904093542 | 81 | 223 | 7.0 | 12.0 | 0.00 | 0.00 | 0.00 | 59 | 1016.9 |
| 20260904093039 | 81 | 261 | 6.0 | 12.0 | 0.00 | 0.00 | 0.00 | 59 | 1016.9 |
| 20260904092553 | 81 | 259 | 3.0 | 9.0 | 0.00 | 0.00 | 0.00 | 60 | 1017.0 |
| 20260904092103 | 80 | 278 | 3.0 | 9.0 | 0.00 | 0.00 | 0.00 | 61 | 1017.0 |
| 20260904091535 | 80 | 229 | 2.0 | 8.0 | 0.00 | 0.00 | 0.00 | 62 | 1017.1 |
| 20260904091046 | 80 | 289 | 3.0 | 8.0 | 0.00 | 0.00 | 0.00 | 63 | 1017.1 |
| 20260904090619 | 79 | 214 | 3.0 | 9.0 | 0.00 | 0.00 | 0.00 | 64 | 1017.1 |
| 20260904090056 | 79 | 251 | 4.0 | 9.0 | 0.00 | 0.00 | 0.00 | 64 | 1017.1 |
| 20260904085548 | 79 | 237 | 2.0 | 7.0 | 0.00 | 0.00 | 0.00 | 66 | 1017.1 |
| 20260904085058 | 79 | 267 | 4.0 | 7.0 | 0.00 | 0.00 | 0.00 | 65 | 1017.1 |
| 20260904084548 | 78 | 236 | 2.0 | 8.0 | 0.00 | 0.00 | 0.00 | 67 | 1017.1 |
| 20260904084043 | 78 | 235 | 2.0 | 7.0 | 0.00 | 0.00 | 0.00 | 68 | 1017.1 |
| 20260904083531 | 78 | 202 | 3.0 | 9.0 | 0.00 | 0.00 | 0.00 | 68 | 1017.1 |
| 20260904083041 | 77 | 321 | 3.0 | 9.0 | 0.00 | 0.00 | 0.00 | 70 | 1017.1 |
| 20260904082556 | 77 | 288 | 3.0 | 8.0 | 0.00 | 0.00 | 0.00 | 71 | 1017.2 |
| 20260904082027 | 76 | 277 | 3.0 | 9.0 | 0.00 | 0.00 | 0.00 | 72 | 1017.3 |
| 20260904081601 | 76 | 196 | 2.0 | 9.0 | 0.00 | 0.00 | 0.00 | 72 | 1017.4 |
| 20260904081040 | 76 | 302 | 3.0 | 12.0 | 0.00 | 0.00 | 0.00 | 73 | 1017.4 |
| 20260904080531 | 75 | 244 | 2.0 | 8.0 | 0.00 | 0.00 | 0.00 | 74 | 1017.5 |
| 20260904080035 | 74 | 225 | 2.0 | 7.0 | 0.00 | 0.00 | 0.00 | 76 | 1017.5 |
| 20260904075545 | 74 | 246 | 1.0 | 5.0 | 0.00 | 0.00 | 0.00 | 76 | 1017.5 |
| 20260904075034 | 74 | 283 | 1.0 | 6.0 | 0.00 | 0.00 | 0.00 | 78 | 1017.5 |
| 20260904074542 | 73 | 275 | 1.0 | 6.0 | 0.00 | 0.00 | 0.00 | 79 | 1017.6 |
| 20260904074032 | 73 | 257 | 2.0 | 6.0 | 0.00 | 0.00 | 0.00 | 80 | 1017.6 |
| 20260904073545 | 72 | 229 | 1.0 | 4.0 | 0.00 | 0.00 | 0.00 | 80 | 1017.7 |
| 20260904073036 | 72 | 247 | 1.0 | 4.0 | 0.00 | 0.00 | 0.00 | 81 | 1017.7 |
| 20260904072545 | 71 | 281 | 1.0 | 3.0 | 0.00 | 0.00 | 0.00 | 82 | 1017.7 |
| 20260904072034 | 71 | 207 | 1.0 | 4.0 | 0.00 | 0.00 | 0.00 | 82 | 1017.7 |
| 20260904071529 | 70 | 232 | 2.0 | 4.0 | 0.00 | 0.00 | 0.00 | 83 | 1017.7 |
| 20260904071038 | 70 | 237 | 1.0 | 3.0 | 0.00 | 0.00 | 0.00 | 83 | 1017.8 |
| 20260904070531 | 69 | 221 | 1.0 | 3.0 | 0.00 | 0.00 | 0.00 | 84 | 1017.8 |
| 20260904070028 | 69 | 219 | 1.0 | 3.0 | 0.00 | 0.00 | 0.00 | 84 | 1017.8 |
| 20260904065541 | 68 | 250 | 1.0 | 4.0 | 0.00 | 0.00 | 0.00 | 85 | 1017.9 |
| 20260904065030 | 68 | 227 | 1.0 | 4.0 | 0.00 | 0.00 | 0.00 | 85 | 1017.8 |
| 20260904064606 | 68 | 261 | 1.0 | 3.0 | 0.00 | 0.00 | 0.00 | 85 | 1017.8 |
| 20260904064105 | 67 | 248 | 1.0 | 5.0 | 0.00 | 0.00 | 0.00 | 86 | 1017.8 |
| 20260904063533 | 67 | 230 | 1.0 | 5.0 | 0.00 | 0.00 | 0.00 | 86 | 1017.9 |
| 20260904063045 | 67 | 230 | 1.0 | 4.0 | 0.00 | 0.00 | 0.00 | 86 | 1017.9 |
| 20260904062534 | 66 | 238 | 1.0 | 4.0 | 0.00 | 0.00 | 0.00 | 87 | 1018.0 |
| 20260904062027 | 66 | 279 | 1.0 | 6.0 | 0.00 | 0.00 | 0.00 | 87 | 1018.1 |
| 20260904061537 | 66 | 267 | 1.0 | 3.0 | 0.00 | 0.00 | 0.00 | 88 | 1018.0 |
| 20260904061033 | 65 | 252 | 1.0 | 4.0 | 0.00 | 0.00 | 0.00 | 88 | 1017.9 |
| 20260904060603 | 65 | 258 | 1.0 | 4.0 | 0.00 | 0.00 | 0.00 | 89 | 1017.9 |
| 20260904060031 | 64 | 250 | 1.0 | 3.0 | 0.00 | 0.00 | 0.00 | 89 | 1017.9 |
| 20260904055540 | 64 | 285 | 1.0 | 3.0 | 0.00 | 0.00 | 0.00 | 90 | 1018.0 |
| 20260904055028 | 64 | 281 | 1.0 | 3.0 | 0.00 | 0.00 | 0.00 | 90 | 1018.0 |
| 20260904054539 | 64 | 229 | 1.0 | 3.0 | 0.00 | 0.00 | 0.00 | 90 | 1017.9 |
| 20260904054033 | 63 | 229 | 0.0 | 2.0 | 0.00 | 0.00 | 0.00 | 90 | 1017.9 |
| 20260904053540 | 63 | 275 | 1.0 | 2.0 | 0.00 | 0.00 | 0.00 | 90 | 1017.8 |
| 20260904053035 | 64 | 296 | 1.0 | 2.0 | 0.00 | 0.00 | 0.00 | 90 | 1017.8 |
| 20260904052546 | 64 | 297 | 1.0 | 3.0 | 0.00 | 0.00 | 0.00 | 90 | 1017.8 |
| 20260904052038 | 64 | 309 | 1.0 | 7.0 | 0.00 | 0.00 | 0.00 | 90 | 1017.8 |
| 20260904051531 | 64 | 251 | 2.0 | 7.0 | 0.00 | 0.00 | 0.00 | 90 | 1017.8 |
| 20260904051045 | 64 | 251 | 2.0 | 5.0 | 0.00 | 0.00 | 0.00 | 90 | 1017.7 |
| 20260904050617 | 63 | 236 | 1.0 | 5.0 | 0.00 | 0.00 | 0.00 | 90 | 1017.7 |
| 20260904050043 | 63 | 238 | 2.0 | 3.0 | 0.00 | 0.00 | 0.00 | 90 | 1017.7 |
| 20260904045540 | 63 | 255 | 1.0 | 5.0 | 0.00 | 0.00 | 0.00 | 90 | 1017.7 |
| 20260904045046 | 63 | 215 | 2.0 | 5.0 | 0.00 | 0.00 | 0.00 | 90 | 1017.7 |
| 20260904044602 | 63 | 265 | 2.0 | 7.0 | 0.00 | 0.00 | 0.00 | 90 | 1017.6 |
| 20260904044034 | 63 | 213 | 2.0 | 7.0 | 0.00 | 0.00 | 0.00 | 90 | 1017.6 |
| 20260904043544 | 63 | 252 | 2.0 | 5.0 | 0.00 | 0.00 | 0.00 | 90 | 1017.6 |
| 20260904043037 | 64 | 226 | 2.0 | 5.0 | 0.00 | 0.00 | 0.00 | 90 | 1017.5 |
| 20260904042529 | 64 | 234 | 2.0 | 4.0 | 0.00 | 0.00 | 0.00 | 90 | 1017.5 |
| 20260904042036 | 64 | 227 | 2.0 | 5.0 | 0.00 | 0.00 | 0.00 | 90 | 1017.5 |
| 20260904041530 | 64 | 238 | 2.0 | 5.0 | 0.00 | 0.00 | 0.00 | 89 | 1017.6 |
| 20260904041043 | 64 | 225 | 2.0 | 5.0 | 0.00 | 0.00 | 0.00 | 89 | 1017.6 |
| 20260904040550 | 64 | 237 | 1.0 | 4.0 | 0.00 | 0.00 | 0.00 | 89 | 1017.6 |
| 20260904040040 | 64 | 222 | 1.0 | 4.0 | 0.00 | 0.00 | 0.00 | 89 | 1017.7 |
| 20260904035537 | 64 | 245 | 1.0 | 3.0 | 0.00 | 0.00 | 0.00 | 89 | 1017.7 |
| 20260904035034 | 64 | 232 | 1.0 | 4.0 | 0.00 | 0.00 | 0.00 | 89 | 1017.7 |
| 20260904034546 | 64 | 229 | 1.0 | 4.0 | 0.00 | 0.00 | 0.00 | 89 | 1017.7 |
| 20260904034038 | 64 | 292 | 1.0 | 4.0 | 0.00 | 0.00 | 0.00 | 88 | 1017.7 |
| 20260904033532 | 65 | 201 | 1.0 | 5.0 | 0.00 | 0.00 | 0.00 | 88 | 1017.7 |
| 20260904033028 | 65 | 227 | 1.0 | 5.0 | 0.00 | 0.00 | 0.00 | 88 | 1017.7 |
| 20260904032543 | 65 | 237 | 1.0 | 3.0 | 0.00 | 0.00 | 0.00 | 88 | 1017.9 |
| 20260904032034 | 65 | 221 | 1.0 | 4.0 | 0.00 | 0.00 | 0.00 | 87 | 1017.8 |
| 20260904031545 | 65 | 220 | 1.0 | 4.0 | 0.00 | 0.00 | 0.00 | 87 | 1017.9 |
| 20260904031034 | 65 | 237 | 1.0 | 3.0 | 0.00 | 0.00 | 0.00 | 87 | 1017.9 |
| 20260904030544 | 65 | 258 | 1.0 | 3.0 | 0.00 | 0.00 | 0.00 | 87 | 1017.9 |
| 20260904030030 | 65 | 243 | 1.0 | 2.0 | 0.00 | 0.00 | 0.00 | 87 | 1018.0 |
| 20260904025543 | 65 | 232 | 1.0 | 2.0 | 0.00 | 0.00 | 0.00 | 87 | 1018.0 |
| 20260904025035 | 65 | 233 | 1.0 | 2.0 | 0.00 | 0.00 | 0.00 | 87 | 1018.1 |
| 20260904024550 | 65 | 229 | 1.0 | 3.0 | 0.00 | 0.00 | 0.00 | 87 | 1018.1 |
| 20260904024046 | 66 | 223 | 1.0 | 3.0 | 0.00 | 0.00 | 0.00 | 87 | 1018.1 |
| 20260904023541 | 66 | 238 | 1.0 | 3.0 | 0.00 | 0.00 | 0.00 | 87 | 1018.1 |
| 20260904023037 | 66 | 227 | 1.0 | 3.0 | 0.00 | 0.00 | 0.00 | 86 | 1018.2 |
| 20260904022548 | 66 | 261 | 0.0 | 1.0 | 0.00 | 0.00 | 0.00 | 86 | 1018.3 |
| 20260904022050 | 66 | 238 | 0.0 | 1.0 | 0.00 | 0.00 | 0.00 | 86 | 1018.2 |
| 20260904021547 | 66 | 242 | 0.0 | 3.0 | 0.00 | 0.00 | 0.00 | 86 | 1018.2 |
| 20260904021038 | 66 | 213 | 1.0 | 3.0 | 0.00 | 0.00 | 0.00 | 86 | 1018.3 |
| 20260904020552 | 66 | 217 | 1.0 | 3.0 | 0.00 | 0.00 | 0.00 | 85 | 1018.3 |
| 20260904020038 | 66 | 225 | 1.0 | 3.0 | 0.00 | 0.00 | 0.00 | 85 | 1018.3 |
| 20260904015545 | 66 | 217 | 1.0 | 2.0 | 0.00 | 0.00 | 0.00 | 86 | 1018.4 |
| 20260904015037 | 66 | 265 | 1.0 | 2.0 | 0.00 | 0.00 | 0.00 | 85 | 1018.4 |
| 20260904014545 | 66 | 224 | 0.0 | 1.0 | 0.00 | 0.00 | 0.00 | 85 | 1018.5 |
| 20260904014043 | 66 | 221 | 0.0 | 2.0 | 0.00 | 0.00 | 0.00 | 85 | 1018.6 |
| 20260904013536 | 66 | 215 | 0.0 | 2.0 | 0.00 | 0.00 | 0.00 | 85 | 1018.5 |
| 20260904013031 | 66 | 220 | 1.0 | 2.0 | 0.00 | 0.00 | 0.00 | 85 | 1018.6 |
| 20260904012553 | 66 | 236 | 1.0 | 2.0 | 0.00 | 0.00 | 0.00 | 85 | 1018.6 |
| 20260904012036 | 67 | 214 | 1.0 | 2.0 | 0.00 | 0.00 | 0.00 | 85 | 1018.7 |
| 20260904011547 | 67 | 234 | 1.0 | 2.0 | 0.00 | 0.00 | 0.00 | 84 | 1018.8 |
| 20260904011059 | 67 | 234 | 1.0 | 3.0 | 0.00 | 0.00 | 0.00 | 84 | 1018.9 |
| 20260904010548 | 67 | 225 | 1.0 | 3.0 | 0.00 | 0.00 | 0.00 | 85 | 1018.9 |
| 20260904010046 | 67 | 222 | 1.0 | 2.0 | 0.00 | 0.00 | 0.00 | 85 | 1019.0 |
| 20260904005540 | 67 | 235 | 0.0 | 1.0 | 0.00 | 0.00 | 0.00 | 84 | 1019.0 |
| 20260904005103 | 67 | 242 | 0.0 | 1.0 | 0.00 | 0.00 | 0.00 | 84 | 1019.0 |
| 20260904004533 | 67 | 236 | 0.0 | 1.0 | 0.00 | 0.00 | 0.00 | 84 | 1019.1 |
| 20260904004042 | 67 | 264 | 0.0 | 1.0 | 0.00 | 0.00 | 0.00 | 83 | 1019.2 |
| 20260904003538 | 67 | 264 | 0.0 | 2.0 | 0.00 | 0.00 | 0.00 | 83 | 1019.2 |
| 20260904003028 | 67 | 242 | 0.0 | 2.0 | 0.00 | 0.00 | 0.00 | 84 | 1019.2 |
| 20260904002544 | 67 | 256 | 1.0 | 2.0 | 0.00 | 0.00 | 0.00 | 83 | 1019.2 |